Terminal Aerodrome Forecast
Issued by NWS Portland, OR

Home | Current Version | Previous Version | Text Only | Print | Product List | Glossary On
Versions: 1 2 3 4 5 6 7 8 9 10 11 12 13 14 15 16 17 18 19 20 21 22 23 24 25 26 27 28 29 30 31 32 33 34 35 36 37 38 39 40 41 42 43 44 45 46 47 48 49 50
538
FTUS46 KPQR 291135
TAFPDX
TAF
KPDX 291135Z 2912/3012 27004KT P6SM -SHRA SCT025 BKN035 OVC045
     FM292300 30012KT P6SM BKN035 BKN045
      TEMPO 2923/3003 -SHRA
     FM300400 30008KT P6SM SCT035 BKN045
     FM301000 32005KT P6SM BKN020=

USA.gov is the U.S. government's official web portal to all federal, state and local government web resources and services.